[[{"header":{"parameterUnit":"m.s-1","parameterCategory":1,"la1":30.2991,"la2":30.254,"lo1":-89.0895,"lo2":-89.0444,"dy":0.0017,"dx":0.0017,"nx":28,"ny":28,"refTime":"2025-09-11T03:00:00:Z","depth":0,"parameterNumber":2,"parameterNumberName":"U-component_of_WINDS"},"data":[0,0,0,0,0,0,0,0,0,0,0,0,0,0,0,0,0,0,0,0,0,0,0,0,0,0,0,0,0,0,0,0,0,0,0,0,0,0,0,0,0,0,0,0,0,0,0,0,0,0,0,0,0,0,0,0,0,0,-0.2359,-0.236,0,-0.249,-0.2492,-0.2493,-0.2546,-0.2545,-0.2545,-0.2544,-0.2682,-0.2686,-0.2689,0,0,0,0,0,0,0,0,0,0,0,0,0,-0.2154,-0.2157,-0.2358,-0.236,-0.2362,-0.249,-0.2492,-0.2494,-0.2546,-0.2545,-0.2545,-0.2544,-0.268,-0.2685,-0.269,0,0,0,0,0,0,0,0,0,0,0,0,0,-0.226,-0.2158,-0.2358,-0.2403,-0.2408,-0.249,-0.2492,-0.2494,-0.2546,-0.2545,-0.2545,-0.2544,-0.2679,-0.2685,-0.2691,-0.2738,0,0,-0.2709,-0.2711,0,0,0,0,0,0,0,0,-0.2254,-0.2267,-0.2395,-0.24,-0.2406,-0.2501,-0.247,-0.2576,-0.2546,-0.2494,-0.2544,-0.2544,-0.2622,-0.2633,-0.2659,-0.2744,-0.275,-0.2709,-0.2713,-0.2715,-0.2717,0,0,0,0,0,0,0,-0.2246,-0.2262,-0.2411,-0.2397,-0.2404,-0.2417,-0.2432,-0.249,-0.2559,-0.2498,-0.2502,-0.2517,-0.2625,-0.2653,-0.2662,-0.2752,-0.2709,-0.2714,-0.2718,-0.272,-0.2883,-0.2884,0,0,0,0,0,0,-0.2231,-0.2255,-0.2407,-0.2415,-0.2327,-0.2421,-0.2438,-0.2471,-0.2559,-0.2572,-0.2517,-0.2519,-0.2643,-0.2655,-0.2667,-0.2729,-0.2715,-0.2721,-0.2724,-0.2883,-0.2884,-0.2884,0,0,0,0,0,0,-0.2227,-0.2244,-0.2401,-0.2336,-0.2357,-0.2425,-0.2463,-0.2474,-0.2502,-0.2573,-0.2586,-0.2533,-0.2643,-0.2659,-0.272,-0.2734,-0.2724,-0.2729,-0.2882,-0.2883,-0.2884,-0.2851,0,0,0,0,0,0,-0.2221,-0.2242,-0.226,-0.2336,-0.236,-0.2451,-0.2464,-0.2477,-0.2511,-0.2515,-0.2591,-0.2603,-0.2644,-0.2711,-0.2726,-0.2742,-0.2734,-0.2881,-0.2882,-0.2884,-0.2851,-0.2851,-0.2851,0,0,0,0,0,-0.2213,-0.2246,-0.2261,-0.2279,-0.2384,-0.2451,-0.2465,-0.2511,-0.2512,-0.2532,-0.2578,-0.2601,-0.273,-0.2716,-0.2734,-0.2752,-0.288,-0.2882,-0.2884,-0.2851,-0.2851,-0.2851,0,0,0,0,0,0,-0.2171,-0.2257,-0.2274,-0.2333,-0.2384,-0.246,-0.2486,-0.2509,-0.2562,-0.2563,-0.2617,-0.2634,-0.2691,-0.2728,-0.2711,-0.2803,-0.2807,-0.2812,-0.2776,-0.2777,-0.2776,-0.2766,-0.2739,0,0,0,0,0,-0.2168,-0.2215,-0.2288,-0.2333,-0.2357,-0.2417,-0.2448,-0.2478,-0.2534,-0.2556,-0.2607,-0.2661,-0.2714,-0.2747,-0.28,-0.2857,-0.2875,-0.2878,-0.2878,-0.2877,-0.2881,-0.2915,-0.2917,-0.289,-0.289,-0.289,0,0,-0.2164,-0.2217,-0.2243,-0.2325,-0.2369,-0.2416,-0.2435,-0.2484,-0.2521,-0.2564,-0.2624,-0.2663,-0.2727,-0.2786,-0.2815,-0.2819,-0.2893,-0.288,-0.2878,-0.2883,-0.2917,-0.2919,-0.2921,-0.2891,-0.2891,-0.2891,0,0,-0.218,-0.2224,-0.2266,-0.2309,-0.2375,-0.2414,-0.2424,-0.2496,-0.2524,-0.2585,-0.2619,-0.2663,-0.2752,-0.2797,-0.2831,-0.2863,-0.2887,-0.2879,-0.2878,-0.291,-0.2912,-0.2914,-0.2926,-0.2929,-0.2883,-0.2882,-0.2882,0,-0.2166,-0.2238,-0.2285,-0.2333,-0.2368,-0.2409,-0.2453,-0.2493,-0.2572,-0.2596,-0.2599,-0.2713,-0.2759,-0.2829,-0.2836,-0.2863,-0.2876,-0.2871,-0.2907,-0.291,-0.2913,-0.2925,-0.2929,-0.2881,-0.2881,-0.2881,-0.2882,0,-0.2218,-0.2268,-0.2294,-0.2369,-0.2408,-0.2453,-0.2507,-0.2541,-0.2568,-0.2607,-0.2669,-0.2726,-0.2791,-0.281,-0.2837,-0.2884,-0.2884,-0.2897,-0.2902,-0.2913,-0.2926,-0.293,-0.2879,-0.288,-0.288,-0.288,0,0,-0.2212,-0.2311,-0.232,-0.2355,-0.243,-0.247,-0.2517,-0.258,-0.2608,-0.2661,-0.2703,-0.2777,-0.2789,-0.2828,-0.2861,-0.2889,-0.2911,-0.2898,-0.29,-0.2899,-0.2967,-0.2957,-0.2962,-0.2927,-0.2928,-0.2929,-0.2962,0,-0.2238,-0.2324,-0.2367,-0.2435,-0.2481,-0.2521,-0.2562,-0.2613,-0.2651,-0.2697,-0.2739,-0.2791,-0.2803,-0.2827,-0.2856,-0.2902,-0.2926,-0.29,-0.2967,-0.2969,-0.295,-0.2968,-0.2958,-0.2986,-0.2967,-0.2967,-0.2968,0,-0.228,-0.2332,-0.2404,-0.2473,-0.2495,-0.2531,-0.2592,-0.2635,-0.2694,-0.2719,-0.2762,-0.2794,-0.2846,-0.2847,-0.292,-0.2902,-0.2932,-0.2959,-0.2961,-0.2969,-0.2969,-0.2977,-0.2996,-0.3,-0.2976,-0.2975,-0.2975,0,-0.2268,-0.2356,-0.2411,-0.2439,-0.2521,-0.2546,-0.2582,-0.264,-0.2675,-0.2728,-0.2752,-0.2811,-0.2843,-0.2889,-0.2936,-0.2932,-0.3004,-0.3009,-0.3028,-0.3026,-0.3041,-0.304,-0.3066,-0.306,-0.306,-0.306,-0.306,0,-0.2293,-0.2335,-0.2406,-0.244,-0.2489,-0.2539,-0.2586,-0.2625,-0.2676,-0.2718,-0.2756,-0.2795,-0.2855,-0.2902,-0.2939,-0.2994,-0.3009,-0.3031,-0.3041,-0.3028,-0.3025,-0.3049,-0.3048,-0.3061,-0.3061,-0.306,-0.306,0,-0.2288,-0.2337,-0.2399,-0.2472,-0.2491,-0.2524,-0.2587,-0.2621,-0.2661,-0.2714,-0.2729,-0.2792,-0.2849,-0.29,-0.2976,-0.3001,-0.3057,-0.3069,-0.3037,-0.3042,-0.3058,-0.3055,-0.31,-0.3108,-0.3096,-0.3096,-0.3096,0,-0.23,-0.2334,-0.241,-0.244,-0.2475,-0.2524,-0.256,-0.261,-0.2646,-0.2716,-0.2742,-0.2801,-0.2851,-0.2941,-0.2993,-0.3052,-0.3065,-0.3077,-0.3074,-0.3061,-0.3066,-0.3063,-0.3067,-0.3076,-0.3076,-0.3076,-0.3076,0,-0.2317,-0.234,-0.2389,-0.2448,-0.2489,-0.2537,-0.2587,-0.261,-0.267,-0.2708,-0.2767,-0.2805,-0.2883,-0.2941,-0.3006,-0.3043,-0.307,-0.3076,-0.3084,-0.3071,-0.3051,-0.3062,-0.3036,-0.3075,-0.3075,-0.3075,-0.3075,-0.3075,-0.2322,-0.2353,-0.2412,-0.2466,-0.2508,-0.2554,-0.259,-0.2634,-0.2683,-0.2749,-0.2776,-0.2835,-0.2894,-0.2982,-0.302,-0.3068,-0.3073,-0.3083,-0.3086,-0.3088,-0.3086,-0.3043,-0.3079,-0.308,-0.308,-0.308,-0.308,0,-0.2341,-0.2381,-0.243,-0.2498,-0.254,-0.2561,-0.2617,-0.2651,-0.2702,-0.2754,-0.2803,-0.287,-0.2927,-0.2984,-0.3045,-0.3072,-0.3085,-0.3086,-0.3085,-0.3093,-0.3078,-0.3065,-0.3074,-0.3074,-0.3074,-0.3074,-0.3074,-0.3074,-0.2356,-0.2411,-0.244,-0.2517,-0.2556,-0.2614,-0.2644,-0.2687,-0.2728,-0.2801,-0.2849,-0.2885,-0.2939,-0.3004,-0.3058,-0.3073,-0.3094,-0.3091,-0.3109,-0.3094,-0.3094,-0.3094,-0.3083,-0.3095,-0.3095,-0.3121,-0.3121,-0.3121]},{"header":{"parameterUnit":"m.s-1","parameterCategory":1,"la1":30.2991,"la2":30.254,"lo1":-89.0895,"lo2":-89.0444,"dy":0.0017,"dx":0.0017,"nx":28,"ny":28,"refTime":"2025-09-11T03:00:00:Z","depth":0,"parameterNumber":3,"parameterNumberName":"V-component_of_WINDS"},"data":[0,0,0,0,0,0,0,0,0,0,0,0,0,0,0,0,0,0,0,0,0,0,0,0,0,0,0,0,0,0,0,0,0,0,0,0,0,0,0,0,0,0,0,0,0,0,0,0,0,0,0,0,0,0,0,0,0,0,-2.9374,-2.9375,0,-2.943,-2.9431,-2.9431,-2.9384,-2.9382,-2.9381,-2.9379,-2.9432,-2.9435,-2.9439,0,0,0,0,0,0,0,0,0,0,0,0,0,-2.9224,-2.9227,-2.9374,-2.9375,-2.9376,-2.943,-2.9431,-2.9431,-2.9385,-2.9382,-2.938,-2.9378,-2.9431,-2.9435,-2.9439,0,0,0,0,0,0,0,0,0,0,0,0,0,-2.9285,-2.9228,-2.9374,-2.9359,-2.9358,-2.943,-2.9431,-2.9432,-2.9385,-2.9382,-2.9379,-2.9377,-2.943,-2.9435,-2.9439,-2.9528,0,0,-2.9454,-2.9456,0,0,0,0,0,0,0,0,-2.9282,-2.9291,-2.9361,-2.936,-2.9359,-2.9397,-2.9397,-2.9464,-2.9386,-2.9375,-2.9379,-2.9375,-2.9423,-2.9428,-2.9445,-2.953,-2.9532,-2.9455,-2.9458,-2.946,-2.9461,0,0,0,0,0,0,0,-2.9278,-2.9288,-2.9396,-2.9362,-2.9361,-2.9348,-2.9354,-2.941,-2.9414,-2.9376,-2.9372,-2.938,-2.9422,-2.944,-2.9446,-2.9533,-2.9454,-2.9459,-2.9462,-2.9464,-2.9693,-2.9696,0,0,0,0,0,0,-2.9275,-2.9285,-2.9394,-2.9398,-2.9313,-2.9353,-2.9359,-2.9388,-2.9414,-2.9415,-2.9382,-2.9377,-2.9433,-2.944,-2.9447,-2.9552,-2.946,-2.9464,-2.9467,-2.969,-2.9694,-2.9697,0,0,0,0,0,0,-2.9272,-2.9286,-2.9392,-2.9341,-2.9353,-2.9359,-2.9392,-2.9391,-2.9409,-2.9419,-2.9419,-2.94,-2.9431,-2.944,-2.9508,-2.9554,-2.9466,-2.9471,-2.9686,-2.9691,-2.9696,-2.9763,0,0,0,0,0,0,-2.9268,-2.9285,-2.9319,-2.9342,-2.9356,-2.9454,-2.9394,-2.9394,-2.9418,-2.9412,-2.9436,-2.9437,-2.943,-2.9501,-2.9513,-2.9559,-2.9475,-2.9682,-2.9689,-2.9694,-2.9757,-2.977,-2.9781,0,0,0,0,0,-2.9263,-2.9335,-2.9321,-2.9335,-2.94,-2.9456,-2.9464,-2.9456,-2.9422,-2.9456,-2.9462,-2.9436,-2.9547,-2.9509,-2.9521,-2.9569,-2.9679,-2.9687,-2.9694,-2.9752,-2.9767,-2.9781,0,0,0,0,0,0,-2.9317,-2.9338,-2.9323,-2.9405,-2.9429,-2.9448,-2.9491,-2.9472,-2.9506,-2.9499,-2.9486,-2.9491,-2.9563,-2.9572,-2.953,-2.9656,-2.9607,-2.9618,-2.9647,-2.9662,-2.9674,-2.967,-2.9479,0,0,0,0,0,-2.9339,-2.9384,-2.9399,-2.947,-2.9483,-2.9485,-2.951,-2.9501,-2.9525,-2.9535,-2.9546,-2.957,-2.9609,-2.9636,-2.9673,-2.9758,-2.9762,-2.9797,-2.9809,-2.9819,-2.9828,-2.9873,-2.9889,-2.9721,-2.9721,-2.9721,0,0,-2.9383,-2.9401,-2.943,-2.9482,-2.95,-2.9546,-2.9494,-2.9545,-2.9579,-2.9542,-2.9608,-2.9616,-2.9641,-2.9718,-2.9752,-2.9729,-2.9875,-2.9828,-2.9836,-2.9839,-2.9882,-2.9898,-2.9912,-2.9726,-2.9725,-2.9724,0,0,-2.9489,-2.9507,-2.9568,-2.9587,-2.9615,-2.9616,-2.9631,-2.9653,-2.9658,-2.9723,-2.9696,-2.9735,-2.9805,-2.9824,-2.9843,-2.9955,-2.9933,-2.9968,-3.003,-3.0074,-3.0087,-3.0099,-3.0139,-3.0154,-2.9977,-2.9977,-2.9977,0,-2.9541,-2.9611,-2.9601,-2.9655,-2.9678,-2.9648,-2.9709,-2.9727,-2.9766,-2.9782,-2.9755,-2.9841,-2.9856,-2.9937,-2.9965,-2.9981,-2.9996,-2.9965,-3.0086,-3.0098,-3.0109,-3.0147,-3.0162,-2.9981,-2.998,-2.998,-2.998,0,-2.9673,-2.9722,-2.9768,-2.9807,-2.9836,-2.9893,-2.989,-2.992,-2.9909,-2.9912,-2.9978,-2.9995,-3.0035,-3.0054,-3.0043,-3.0133,-3.0117,-3.0089,-3.004,-3.0129,-3.0165,-3.0179,-2.9987,-2.9985,-2.9984,-2.9983,0,0,-2.9815,-2.9848,-2.9865,-2.9883,-2.9912,-2.9949,-3.0004,-3.0044,-3.007,-3.0097,-3.0143,-3.0202,-3.0176,-3.0197,-3.0188,-3.0227,-3.0315,-3.0193,-3.0193,-3.0215,-3.0415,-3.0437,-3.0455,-3.03,-3.0303,-3.0305,-3.0413,0,-2.9922,-3.002,-3.0012,-3.0104,-3.0149,-3.012,-3.0168,-3.019,-3.0195,-3.0232,-3.0236,-3.0279,-3.0241,-3.0254,-3.0291,-3.0297,-3.0355,-3.0288,-3.0341,-3.0344,-3.0337,-3.0473,-3.0497,-3.0598,-3.0427,-3.043,-3.0431,0,-3.006,-3.0094,-3.019,-3.0213,-3.0231,-3.0275,-3.0311,-3.0348,-3.0372,-3.0372,-3.0396,-3.038,-3.0435,-3.0384,-3.0459,-3.0414,-3.0435,-3.0441,-3.0444,-3.0449,-3.0393,-3.0482,-3.0631,-3.0646,-3.0453,-3.0452,-3.045,0,-3.0154,-3.0223,-3.029,-3.0306,-3.0333,-3.0365,-3.0377,-3.0399,-3.0423,-3.0455,-3.0471,-3.0507,-3.0528,-3.0556,-3.055,-3.0514,-3.0626,-3.0575,-3.0627,-3.0628,-3.0653,-3.0651,-3.0807,-3.0665,-3.0665,-3.0665,-3.0665,0,-3.0275,-3.0335,-3.0333,-3.0374,-3.0441,-3.0431,-3.0496,-3.0505,-3.0524,-3.0566,-3.0542,-3.0582,-3.0571,-3.0609,-3.0605,-3.0667,-3.0676,-3.0677,-3.0676,-3.068,-3.068,-3.0694,-3.0687,-3.0669,-3.0668,-3.0667,-3.0667,0,-3.0392,-3.0393,-3.0464,-3.0484,-3.049,-3.0539,-3.0555,-3.0593,-3.0596,-3.0649,-3.066,-3.0664,-3.0708,-3.0704,-3.0754,-3.075,-3.0828,-3.0817,-3.082,-3.0818,-3.0871,-3.0866,-3.1041,-3.1064,-3.0907,-3.0909,-3.091,0,-3.0469,-3.0515,-3.0541,-3.0567,-3.0583,-3.0626,-3.0651,-3.0643,-3.067,-3.0701,-3.0736,-3.0778,-3.0811,-3.0882,-3.0889,-3.0926,-3.0916,-3.0975,-3.0922,-3.0925,-3.0918,-3.0915,-3.092,-3.0986,-3.0988,-3.0989,-3.099,0,-3.0606,-3.0605,-3.0643,-3.0682,-3.0713,-3.0743,-3.077,-3.0793,-3.0787,-3.0819,-3.0864,-3.089,-3.0941,-3.0983,-3.1019,-3.103,-3.1009,-3.1007,-3.1021,-3.1026,-3.1026,-3.1028,-3.0849,-3.1003,-3.1002,-3.1001,-3.1,-3.1,-3.0706,-3.0746,-3.077,-3.0814,-3.0833,-3.0859,-3.0896,-3.0904,-3.0942,-3.0984,-3.0976,-3.1027,-3.1049,-3.1095,-3.111,-3.1148,-3.1127,-3.1148,-3.1153,-3.1158,-3.1164,-3.102,-3.1155,-3.1154,-3.1154,-3.1154,-3.1153,0,-3.0842,-3.0857,-3.0897,-3.0936,-3.097,-3.0949,-3.0978,-3.1007,-3.1053,-3.1076,-3.1109,-3.1161,-3.1202,-3.1211,-3.125,-3.1279,-3.1271,-3.129,-3.1288,-3.1291,-3.1181,-3.1165,-3.1296,-3.1296,-3.1296,-3.1296,-3.1296,-3.1296,-3.0918,-3.0984,-3.0985,-3.106,-3.1073,-3.1124,-3.1143,-3.1166,-3.1184,-3.1244,-3.1278,-3.1284,-3.1301,-3.1341,-3.1377,-3.1378,-3.1394,-3.1417,-3.1415,-3.1312,-3.1298,-3.1285,-3.127,-3.142,-3.142,-3.1521,-3.1522,-3.1523]}]]